Time,TemperatureF,DewpointF,PressureIn,WindDirection,WindDirectionDegrees,WindSpeedMPH,WindSpeedGustMPH,Humidity,HourlyPrecipIn,Conditions,Clouds,dailyrainin,SolarRadiationWatts/m^2,SoftwareType,DateUTC
2013-06-24 00:39:00,58.0,37.0,-100.00,East,80,2.0,6.0,45,0.00,,,-99.99,0.000000,,2013-06-24 06:39:00,
2013-06-24 00:54:00,58.0,37.0,-100.00,East,80,2.0,6.0,45,0.00,,,-99.99,0.000000,,2013-06-24 06:54:00,
2013-06-24 01:03:00,58.0,37.0,-100.00,East,80,2.0,6.0,45,0.00,,,-99.99,0.000000,,2013-06-24 07:03:00,
2013-06-24 01:37:00,57.0,39.0,-100.00,West,278,3.0,9.0,51,0.00,,,0.00,0.000000,,2013-06-24 07:37:00,
2013-06-24 01:49:00,57.0,39.0,-100.00,West,278,3.0,9.0,51,0.00,,,0.00,0.000000,,2013-06-24 07:49:00,
2013-06-24 01:55:00,57.0,39.0,-100.00,West,278,3.0,9.0,51,0.00,,,0.00,0.000000,,2013-06-24 07:55:00,
2013-06-24 02:03:00,57.0,39.0,-100.00,West,278,3.0,9.0,51,0.00,,,0.00,0.000000,,2013-06-24 08:03:00,
2013-06-24 02:47:00,58.0,39.0,-100.00,NW,313,5.0,10.0,49,0.00,,,0.00,0.000000,,2013-06-24 08:47:00,
2013-06-24 03:03:00,58.0,39.0,-100.00,NW,313,5.0,10.0,49,0.00,,,0.00,0.000000,,2013-06-24 09:03:00,
2013-06-24 03:38:00,57.0,40.0,-100.00,West,267,4.0,8.0,52,0.00,,,0.00,0.000000,,2013-06-24 09:38:00,
2013-06-24 03:58:00,57.0,40.0,-100.00,West,267,4.0,8.0,52,0.00,,,0.00,0.000000,,2013-06-24 09:58:00,
2013-06-24 04:51:00,56.0,38.0,-100.00,SW,220,3.0,6.0,50,0.00,,,0.00,0.000000,,2013-06-24 10:51:00,
2013-06-24 05:02:00,56.0,38.0,-100.00,SW,220,3.0,6.0,50,0.00,,,0.00,0.000000,,2013-06-24 11:02:00,
2013-06-24 05:48:00,56.0,39.0,-100.00,SW,221,3.0,6.0,53,0.00,,,0.00,0.000000,,2013-06-24 11:48:00,
2013-06-24 05:56:00,56.0,39.0,-100.00,SW,221,3.0,6.0,53,0.00,,,0.00,0.000000,,2013-06-24 11:56:00,
2013-06-24 06:03:00,56.0,39.0,-100.00,SW,221,3.0,6.0,53,0.00,,,0.00,0.000000,,2013-06-24 12:03:00,
2013-06-24 06:37:00,55.0,39.0,-100.00,SW,236,2.0,4.0,55,0.00,,,0.00,1.000000,,2013-06-24 12:37:00,
2013-06-24 06:49:00,55.0,39.0,-100.00,SW,236,2.0,4.0,55,0.00,,,0.00,1.000000,,2013-06-24 12:49:00,
2013-06-24 06:54:00,55.0,39.0,-100.00,SW,236,2.0,4.0,55,0.00,,,0.00,1.000000,,2013-06-24 12:54:00,
2013-06-24 07:46:00,55.0,39.0,-100.00,West,263,2.0,7.0,54,0.00,,,0.00,23.000000,,2013-06-24 13:46:00,
2013-06-24 07:57:00,55.0,39.0,-100.00,West,263,2.0,7.0,54,0.00,,,0.00,23.000000,,2013-06-24 13:57:00,
2013-06-24 08:45:00,56.0,42.0,-100.00,WNW,286,5.0,10.0,59,0.00,,,0.00,102.000000,,2013-06-24 14:45:00,
2013-06-24 09:03:00,56.0,42.0,-100.00,WNW,286,5.0,10.0,59,0.00,,,0.00,102.000000,,2013-06-24 15:03:00,
2013-06-24 09:37:00,56.0,46.0,-100.00,WSW,248,5.0,9.0,68,0.00,,,0.00,119.000000,,2013-06-24 15:37:00,
2013-06-24 09:47:00,56.0,46.0,-100.00,WSW,248,5.0,9.0,68,0.00,,,0.00,119.000000,,2013-06-24 15:47:00,
2013-06-24 09:55:00,56.0,46.0,-100.00,WSW,248,5.0,9.0,68,0.00,,,0.00,119.000000,,2013-06-24 15:55:00,
2013-06-24 10:02:00,56.0,46.0,-100.00,WSW,248,5.0,9.0,68,0.00,,,0.00,119.000000,,2013-06-24 16:02:00,
2013-06-24 10:36:00,56.0,42.0,-100.00,SE,129,5.0,12.0,60,0.00,,,0.00,254.000000,,2013-06-24 16:36:00,
2013-06-24 10:45:00,56.0,42.0,-100.00,SE,129,5.0,12.0,60,0.00,,,0.00,254.000000,,2013-06-24 16:45:00,
2013-06-24 11:02:00,56.0,42.0,-100.00,SE,129,5.0,12.0,60,0.00,,,0.00,254.000000,,2013-06-24 17:02:00,
2013-06-24 11:36:00,61.0,50.0,-100.00,ESE,122,3.0,9.0,66,0.01,,,0.01,314.000000,,2013-06-24 17:36:00,
2013-06-24 11:47:00,61.0,50.0,-100.00,ESE,122,3.0,9.0,66,0.01,,,0.01,314.000000,,2013-06-24 17:47:00,
2013-06-24 12:01:00,61.0,50.0,-100.00,ESE,122,3.0,9.0,66,0.01,,,0.01,314.000000,,2013-06-24 18:01:00,
2013-06-24 12:36:00,61.0,47.0,-100.00,NNE,22,3.0,8.0,60,0.00,,,0.01,450.000000,,2013-06-24 18:36:00,
2013-06-24 12:48:00,61.0,47.0,-100.00,NNE,22,3.0,8.0,60,0.00,,,0.01,450.000000,,2013-06-24 18:48:00,
2013-06-24 12:55:00,61.0,47.0,-100.00,NNE,22,3.0,8.0,60,0.00,,,0.01,450.000000,,2013-06-24 18:55:00,
2013-06-24 13:03:00,61.0,47.0,-100.00,NNE,22,3.0,8.0,60,0.00,,,0.01,450.000000,,2013-06-24 19:03:00,
2013-06-24 13:37:00,57.0,40.0,-100.00,West,274,19.0,28.0,53,0.01,,,0.02,810.000000,,2013-06-24 19:37:00,
2013-06-24 13:46:00,57.0,40.0,-100.00,West,274,19.0,28.0,53,0.01,,,0.02,810.000000,,2013-06-24 19:46:00,
2013-06-24 13:55:00,57.0,40.0,-100.00,West,274,19.0,28.0,53,0.01,,,0.02,810.000000,,2013-06-24 19:55:00,
2013-06-24 14:46:00,62.0,46.0,-100.00,WNW,289,9.0,20.0,56,-99.99,,,-99.99,649.000000,,2013-06-24 20:46:00,
2013-06-24 14:55:00,62.0,46.0,-100.00,WNW,289,9.0,20.0,56,-99.99,,,-99.99,649.000000,,2013-06-24 20:55:00,
2013-06-24 15:02:00,62.0,46.0,-100.00,WNW,289,9.0,20.0,56,-99.99,,,-99.99,649.000000,,2013-06-24 21:02:00,
2013-06-24 15:39:00,65.0,50.0,-100.00,NNW,338,9.0,13.0,59,0.00,,,0.02,682.000000,,2013-06-24 21:39:00,
2013-06-24 15:47:00,65.0,50.0,-100.00,NNW,338,9.0,13.0,59,0.00,,,0.02,682.000000,,2013-06-24 21:47:00,
2013-06-24 15:54:00,65.0,50.0,-100.00,NNW,338,9.0,13.0,59,0.00,,,0.02,682.000000,,2013-06-24 21:54:00,
2013-06-24 16:03:00,65.0,50.0,-100.00,NNW,338,9.0,13.0,59,0.00,,,0.02,682.000000,,2013-06-24 22:03:00,
2013-06-24 16:49:00,65.0,48.0,-100.00,WNW,287,11.0,16.0,54,0.00,,,0.02,618.000000,,2013-06-24 22:49:00,
2013-06-24 16:55:00,65.0,48.0,-100.00,WNW,287,11.0,16.0,54,0.00,,,0.02,618.000000,,2013-06-24 22:55:00,
2013-06-24 17:02:00,65.0,48.0,-100.00,WNW,287,11.0,16.0,54,0.00,,,0.02,618.000000,,2013-06-24 23:02:00,
2013-06-24 17:36:00,60.0,46.0,-100.00,NE,46,5.0,15.0,60,0.00,,,0.02,226.000000,,2013-06-24 23:36:00,
2013-06-24 17:45:00,60.0,46.0,-100.00,NE,46,5.0,15.0,60,0.00,,,0.02,226.000000,,2013-06-24 23:45:00,
2013-06-24 17:54:00,60.0,46.0,-100.00,NE,46,5.0,15.0,60,0.00,,,0.02,226.000000,,2013-06-24 23:54:00,
2013-06-24 18:02:00,60.0,46.0,-100.00,NE,46,5.0,15.0,60,0.00,,,0.02,226.000000,,2013-06-25 00:02:00,
2013-06-24 18:36:00,57.0,47.0,-100.00,WNW,294,8.0,24.0,70,0.00,,,0.02,138.000000,,2013-06-25 00:36:00,
2013-06-24 18:55:00,57.0,47.0,-100.00,WNW,294,8.0,24.0,70,0.00,,,0.02,138.000000,,2013-06-25 00:55:00,
2013-06-24 19:02:00,57.0,47.0,-100.00,WNW,294,8.0,24.0,70,0.00,,,0.02,138.000000,,2013-06-25 01:02:00,
2013-06-24 19:46:00,56.0,42.0,-100.00,WNW,295,7.0,22.0,59,0.00,,,0.02,132.000000,,2013-06-25 01:46:00,
2013-06-24 19:55:00,56.0,42.0,-100.00,WNW,295,7.0,22.0,59,0.00,,,0.02,132.000000,,2013-06-25 01:55:00,
2013-06-24 20:02:00,56.0,42.0,-100.00,WNW,295,7.0,22.0,59,0.00,,,0.02,132.000000,,2013-06-25 02:02:00,
2013-06-24 20:37:00,53.0,50.0,-100.00,ESE,106,3.0,12.0,89,0.00,,,0.02,32.000000,,2013-06-25 02:37:00,
2013-06-24 20:47:00,53.0,50.0,-100.00,ESE,106,3.0,12.0,89,0.00,,,0.02,32.000000,,2013-06-25 02:47:00,
2013-06-24 20:56:00,53.0,50.0,-100.00,ESE,106,3.0,12.0,89,0.00,,,0.02,32.000000,,2013-06-25 02:56:00,
2013-06-24 21:46:00,52.0,50.0,-100.00,West,259,8.0,13.0,92,0.01,,,0.03,31.000000,,2013-06-25 03:46:00,
2013-06-24 21:55:00,52.0,50.0,-100.00,West,259,8.0,13.0,92,0.01,,,0.03,31.000000,,2013-06-25 03:55:00,
2013-06-24 22:01:00,52.0,50.0,-100.00,West,259,8.0,13.0,92,0.01,,,0.03,31.000000,,2013-06-25 04:01:00,
2013-06-24 22:34:00,53.0,45.0,-100.00,WSW,237,5.0,13.0,73,0.00,,,0.03,3.000000,,2013-06-25 04:34:00,
2013-06-24 22:43:00,53.0,45.0,-100.00,WSW,237,5.0,13.0,73,0.00,,,0.03,3.000000,,2013-06-25 04:43:00,
2013-06-24 22:52:00,53.0,45.0,-100.00,WSW,237,5.0,13.0,73,0.00,,,0.03,3.000000,,2013-06-25 04:52:00,
2013-06-24 23:01:00,53.0,45.0,-100.00,WSW,237,5.0,13.0,73,0.00,,,0.03,3.000000,,2013-06-25 05:01:00,
2013-06-24 23:32:00,51.0,42.0,-100.00,SSE,163,4.0,8.0,72,0.01,,,0.04,0.000000,,2013-06-25 05:32:00,
2013-06-24 23:44:00,51.0,42.0,-100.00,SSE,163,4.0,8.0,72,0.01,,,0.04,0.000000,,2013-06-25 05:44:00,
2013-06-24 23:52:00,51.0,42.0,-100.00,SSE,163,4.0,8.0,72,0.01,,,0.04,0.000000,,2013-06-25 05:52:00,